FW8813 Weather Reports


time (UTC)temp
C
wind
direction
speed
KPH
gust
KPH
rain 1hr
cm
rain 24hr
cm
rain mn
cm
humidity
%
barometer
mb
20260508102034 2 0 0.0 4.8 0.00 0.25 0.00 96 1016.5
20260508101544 2 307 1.6 4.8 0.00 0.25 0.00 96 1016.5
20260508101035 2 309 0.0 1.6 0.00 0.25 0.00 96 1016.5
20260508100537 2 319 0.0 8.0 0.00 0.25 0.00 96 1016.5
20260508100049 2 267 1.6 8.0 0.00 0.25 0.00 97 1016.3
20260508095534 2 11 0.0 3.2 0.00 0.28 0.00 97 1016.3
20260508095034 2 277 1.6 3.2 0.00 0.28 0.00 96 1016.3
20260508094548 2 0 0.0 4.8 0.00 0.28 0.00 97 1016.3
20260508094033 2 0 0.0 4.8 0.00 0.28 0.00 97 1016.2
20260508093535 2 282 1.6 4.8 0.00 0.28 0.00 97 1016.1
20260508093048 2 0 0.0 4.8 0.00 0.28 0.00 97 1016.2
20260508092535 2 0 1.6 4.8 0.00 0.28 0.00 97 1016.2
20260508092034 3 225 0.0 6.4 0.00 0.28 0.00 97 1016.0
20260508091558 2 3 0.0 6.4 0.00 0.28 0.00 97 1016.2
20260508091033 2 294 0.0 3.2 0.00 0.28 0.00 96 1016.0
20260508090536 2 90 0.0 1.6 0.00 0.28 0.00 96 1016.0
20260508090104 2 0 0.0 3.2 0.00 0.28 0.00 96 1016.0
20260508085534 2 0 0.0 3.2 0.00 0.28 0.00 96 1015.8
20260508085034 3 0 0.0 3.2 0.00 0.28 0.00 97 1015.8
20260508084548 2 260 0.0 3.2 0.00 0.28 0.00 96 1015.6
20260508084034 2 111 0.0 1.6 0.00 0.28 0.00 96 1015.5
20260508083534 3 146 0.0 1.6 0.00 0.28 0.00 96 1015.6
20260508083043 3 0 0.0 3.2 0.00 0.28 0.00 96 1015.5
20260508082534 3 0 0.0 3.2 0.00 0.28 0.00 96 1015.6
20260508082034 3 221 0.0 3.2 0.00 0.28 0.00 96 1015.4
20260508081549 3 143 0.0 4.8 0.00 0.28 0.00 97 1015.4
20260508081037 3 0 1.6 4.8 0.00 0.28 0.00 97 1015.2
20260508080534 3 271 1.6 3.2 0.00 0.28 0.00 96 1015.1
20260508080047 3 0 0.0 0.0 0.00 0.28 0.00 96 1015.3
20260508075534 3 0 0.0 0.0 0.00 0.30 0.00 97 1015.2
20260508075034 3 0 0.0 4.8 0.00 0.30 0.00 96 1015.2
20260508074546 3 0 0.0 4.8 0.00 0.30 0.00 96 1015.1
20260508074033 3 283 0.0 4.8 0.00 0.30 0.00 96 1015.1
20260508073538 3 0 0.0 0.0 0.00 0.30 0.00 96 1015.1
20260508073043 4 0 0.0 0.0 0.00 0.30 0.00 97 1014.9
20260508072535 3 0 0.0 0.0 0.00 0.30 0.00 97 1015.0
20260508072038 3 0 0.0 0.0 0.00 0.30 0.00 96 1015.0
20260508071552 3 0 0.0 0.0 0.00 0.30 0.00 96 1015.1
20260508071036 3 0 0.0 0.0 0.00 0.30 0.00 96 1015.0
20260508070534 3 0 0.0 0.0 0.00 0.30 0.00 96 1015.0
20260508070044 4 0 0.0 0.0 0.00 0.30 0.00 96 1015.1
20260508065533 4 0 0.0 0.0 0.00 0.30 0.00 96 1015.1
20260508065034 4 0 0.0 0.0 0.00 0.30 0.00 96 1015.0
20260508064549 4 0 0.0 0.0 0.00 0.30 0.00 96 1015.0
20260508064034 4 0 0.0 0.0 0.00 0.30 0.00 96 1015.0
20260508063534 4 0 0.0 0.0 0.00 0.30 0.00 96 1014.9
20260508063046 4 0 0.0 0.0 0.00 0.30 0.00 95 1014.9
20260508062533 4 0 0.0 0.0 0.00 0.30 0.00 95 1015.0
20260508062033 5 0 0.0 0.0 0.00 0.30 0.00 96 1015.1
20260508061550 5 0 0.0 0.0 0.00 0.30 0.00 96 1015.0
20260508061034 5 0 0.0 0.0 0.00 0.30 0.00 95 1015.1
20260508060535 5 0 0.0 0.0 0.00 0.30 0.00 96 1015.1
20260508060045 5 0 0.0 0.0 0.00 0.30 0.00 96 1015.1
20260508055536 5 0 0.0 0.0 0.00 0.30 0.00 96 1015.0
20260508055034 5 0 0.0 0.0 0.00 0.30 0.00 95 1015.1
20260508054547 5 0 0.0 0.0 0.00 0.30 0.00 96 1015.1
20260508054035 5 0 0.0 0.0 0.00 0.30 0.00 96 1015.1
20260508053537 5 0 0.0 0.0 0.00 0.30 0.00 96 1015.3
20260508053113 5 0 0.0 0.0 0.00 0.30 0.00 95 1015.1
20260508052537 5 0 0.0 0.0 0.00 0.30 0.00 95 1014.9
20260508052035 6 0 0.0 0.0 0.00 0.30 0.00 95 1014.9
20260508051545 6 0 0.0 0.0 0.00 0.30 0.00 96 1014.9
20260508051037 6 0 0.0 0.0 0.00 0.30 0.00 95 1014.9
20260508050534 6 0 0.0 0.0 0.00 0.30 0.00 95 1014.8
20260508050047 6 0 0.0 1.6 0.00 0.30 0.00 95 1014.9
20260508045534 6 0 0.0 4.8 0.00 0.30 0.00 95 1014.6
20260508045034 6 0 0.0 4.8 0.00 0.30 0.00 95 1014.7
20260508044555 6 0 0.0 6.4 0.00 0.30 0.00 95 1014.6
20260508044034 6 41 0.0 6.4 0.00 0.30 0.00 95 1014.5
20260508043533 6 263 1.6 6.4 0.00 0.30 0.00 94 1014.3
20260508043054 6 0 0.0 3.2 0.00 0.30 0.00 95 1014.1
20260508042534 6 0 1.6 4.8 0.00 0.30 0.00 95 1014.1
20260508042035 6 0 0.0 4.8 0.00 0.30 0.00 95 1014.1
20260508041610 6 240 0.0 3.2 0.00 0.30 0.00 95 1014.0
20260508041034 6 0 0.0 4.8 0.00 0.30 0.00 95 1014.1
20260508040534 6 0 1.6 4.8 0.00 0.30 0.00 94 1014.1
20260508040107 6 0 0.0 4.8 0.00 0.30 0.00 95 1014.1
20260508035537 6 0 0.0 4.8 0.00 0.43 0.30 94 1014.0
20260508035037 6 0 1.6 4.8 0.00 0.43 0.30 94 1013.9
20260508034547 7 267 1.6 3.2 0.00 0.43 0.30 94 1014.0
20260508034037 7 264 0.0 3.2 0.00 0.43 0.30 94 1013.9
20260508033533 7 0 1.6 3.2 0.00 0.43 0.30 94 1013.9
20260508033048 7 0 0.0 3.2 0.00 0.43 0.30 94 1013.9
20260508032534 7 0 0.0 3.2 0.00 0.43 0.30 94 1013.8
20260508032035 7 0 0.0 3.2 0.00 0.43 0.30 94 1013.8
20260508031545 6 84 0.0 3.2 0.00 0.43 0.30 93 1013.9
20260508031033 7 0 0.0 1.6 0.00 0.43 0.30 93 1013.9
20260508030534 7 0 0.0 3.2 0.00 0.43 0.30 93 1013.9
20260508030044 7 0 0.0 4.8 0.00 0.43 0.30 93 1013.8
20260508025538 7 75 0.0 4.8 0.00 0.48 0.30 93 1013.8
20260508025034 7 0 0.0 0.0 0.00 0.48 0.30 93 1013.7
20260508024546 8 0 0.0 0.0 0.00 0.48 0.30 93 1013.4
20260508024039 8 0 0.0 0.0 0.00 0.48 0.30 93 1013.3
20260508023534 8 0 0.0 0.0 0.00 0.48 0.30 92 1013.3
20260508023048 8 0 0.0 0.0 0.00 0.48 0.30 91 1013.3
20260508022536 8 0 0.0 0.0 0.00 0.48 0.30 91 1013.1
20260508022035 8 0 0.0 0.0 0.00 0.48 0.30 91 1013.1
20260508021544 8 0 0.0 0.0 0.00 0.48 0.30 90 1013.1
20260508021033 9 0 0.0 0.0 0.00 0.48 0.30 90 1013.1
20260508020535 9 0 0.0 0.0 0.00 0.48 0.30 90 1013.1
20260508020050 9 0 0.0 1.6 0.00 0.48 0.30 89 1013.0
20260508015534 10 0 0.0 3.2 0.00 0.48 0.30 88 1012.9
20260508015033 10 0 0.0 4.8 0.00 0.48 0.30 88 1012.8
20260508014546 10 0 1.6 4.8 0.00 0.48 0.30 86 1012.8
20260508014035 10 271 0.0 1.6 0.00 0.48 0.30 86 1012.5
20260508013536 10 0 0.0 0.0 0.00 0.48 0.30 89 1012.7
20260508013048 10 0 0.0 3.2 0.00 0.48 0.30 87 1012.5
20260508012533 11 0 0.0 3.2 0.00 0.48 0.30 87 1012.2
20260508012035 11 280 1.6 6.4 0.00 0.48 0.30 88 1012.1
20260508011551 11 0 0.0 6.4 0.00 0.48 0.30 84 1012.1
20260508011034 11 323 0.0 6.4 0.00 0.48 0.30 79 1012.1
20260508010534 12 0 0.0 8.0 0.00 0.48 0.30 81 1012.0
20260508010039 12 358 4.8 8.0 0.00 0.48 0.30 79 1012.0
20260508005537 12 290 1.6 6.4 0.00 0.48 0.30 80 1012.0
20260508005037 12 276 0.0 4.8 0.00 0.48 0.30 83 1012.0
20260508004552 12 293 1.6 8.0 0.00 0.48 0.30 79 1011.8
20260508004036 12 294 0.0 8.0 0.00 0.48 0.30 77 1011.8
20260508003533 12 23 4.8 8.0 0.00 0.48 0.30 77 1012.0
20260508003044 13 11 3.2 6.4 0.00 0.48 0.30 81 1011.9
20260508002533 12 293 1.6 4.8 0.00 0.48 0.30 79 1012.0
20260508002033 13 0 0.0 1.6 0.00 0.48 0.30 82 1012.0
20260508001548 13 0 0.0 1.6 0.00 0.48 0.30 82 1011.9
20260508001033 13 283 0.0 3.2 0.00 0.48 0.30 85 1012.0
20260508000533 13 0 1.6 4.8 0.00 0.48 0.30 84 1012.0
20260508000044 14 286 3.2 6.4 0.00 0.48 0.30 79 1012.0
20260507235533 14 293 3.2 6.4 0.00 0.48 0.30 83 1011.8
20260507235032 14 290 1.6 8.0 0.00 0.48 0.30 83 1011.8
20260507234547 14 288 1.6 8.0 0.00 0.48 0.30 83 1011.7
20260507234032 14 290 1.6 14.5 0.00 0.48 0.30 84 1011.7
20260507233535 14 356 1.6 14.5 0.00 0.48 0.30 88 1011.5
20260507233058 14 288 1.6 6.4 0.00 0.48 0.30 90 1011.4
20260507232534 14 255 0.0 6.4 0.00 0.48 0.30 90 1011.5
20260507232033 14 160 0.0 3.2 0.00 0.48 0.30 89 1011.5
20260507231544 14 0 0.0 3.2 0.00 0.48 0.30 89 1011.4
20260507231033 14 110 1.6 3.2 0.00 0.48 0.30 89 1011.3
20260507230532 15 141 1.6 3.2 0.00 0.48 0.30 89 1011.2
20260507230049 15 135 1.6 3.2 0.00 0.48 0.30 89 1011.1
20260507225533 14 142 1.6 3.2 0.00 0.48 0.30 89 1011.1
20260507225033 14 141 0.0 3.2 0.00 0.48 0.30 89 1011.0
20260507224553 14 0 0.0 0.0 0.00 0.48 0.30 89 1011.0
20260507224034 15 0 0.0 0.0 0.00 0.48 0.30 88 1010.9
20260507223536 15 0 0.0 0.0 0.00 0.48 0.30 88 1011.0
20260507223042 15 0 0.0 1.6 0.00 0.48 0.30 86 1010.8
20260507222535 15 0 0.0 4.8 0.00 0.48 0.30 86 1010.7
20260507222033 15 0 0.0 4.8 0.00 0.48 0.30 85 1010.7
20260507221548 15 0 1.6 6.4 0.00 0.48 0.30 85 1010.5
20260507221034 15 163 3.2 6.4 0.00 0.48 0.30 85 1010.4
20260507220534 15 165 3.2 6.4 0.00 0.48 0.30 86 1010.5
20260507220046 15 87 4.8 6.4 0.00 0.48 0.30 85 1010.5
20260507215536 15 64 0.0 4.8 0.00 0.48 0.30 85 1010.6
20260507215034 15 130 1.6 12.9 0.00 0.48 0.30 84 1010.7
20260507214544 15 93 4.8 12.9 0.00 0.48 0.30 82 1010.6
20260507214033 15 110 4.8 12.9 0.00 0.48 0.30 82 1010.5
20260507213536 15 120 4.8 12.9 0.00 0.48 0.30 82 1010.4
20260507213053 15 120 6.4 12.9 0.00 0.48 0.30 80 1010.4
20260507212533 15 154 4.8 9.7 0.00 0.48 0.30 83 1010.3
20260507212033 15 134 4.8 9.7 0.00 0.48 0.30 84 1010.2
20260507211539 16 90 3.2 11.3 0.00 0.48 0.30 82 1010.3
20260507211035 15 80 6.4 11.3 0.00 0.48 0.30 84 1010.1
20260507210535 15 104 6.4 11.3 0.00 0.48 0.30 86 1010.0
20260507210049 15 82 4.8 9.7 0.00 0.48 0.30 87 1010.2
20260507205534 15 130 4.8 14.5 0.00 0.48 0.30 90 1010.1
20260507205033 15 91 6.4 14.5 0.00 0.48 0.30 87 1010.0
20260507204547 14 108 6.4 14.5 0.00 0.48 0.30 89 1010.2
20260507204035 14 160 8.0 12.9 0.00 0.48 0.30 89 1010.2
20260507203534 14 113 6.4 11.3 0.00 0.48 0.30 89 1010.2
20260507203047 13 141 4.8 9.7 0.00 0.48 0.30 90 1010.4
20260507202533 13 124 4.8 11.3 0.00 0.48 0.30 90 1010.2
20260507202033 13 108 6.4 11.3 0.00 0.48 0.30 90 1010.3
20260507201545 13 153 4.8 8.0 0.05 0.48 0.30 89 1010.2
20260507201034 13 120 3.2 6.4 0.05 0.48 0.30 90 1010.3
20260507200533 13 120 3.2 8.0 0.05 0.48 0.30 89 1010.4
20260507200048 13 113 1.6 8.0 0.05 0.48 0.30 89 1010.5
20260507195534 13 77 1.6 8.0 0.05 0.48 0.30 89 1010.6
20260507195034 13 0 0.0 12.9 0.05 0.48 0.30 89 1010.8
20260507194615 13 78 0.0 12.9 0.05 0.48 0.30 89 1010.9
20260507194033 13 75 3.2 12.9 0.05 0.48 0.30 88 1010.9
20260507193534 13 69 1.6 8.0 0.05 0.48 0.30 89 1010.9
20260507193048 13 24 3.2 8.0 0.05 0.48 0.30 89 1010.9
20260507192537 13 0 4.8 16.1 0.05 0.48 0.30 88 1010.8
20260507192033 13 4 8.0 16.1 0.05 0.48 0.30 86 1010.6
20260507191549 13 34 9.7 16.1 0.00 0.43 0.25 85 1011.4
20260507191033 13 41 6.4 12.9 0.00 0.43 0.25 85 1011.0
20260507190533 13 57 6.4 12.9 0.00 0.43 0.25 85 1010.9
20260507190052 13 65 6.4 11.3 0.00 0.43 0.25 84 1011.0
20260507185534 13 41 4.8 11.3 0.00 0.43 0.25 85 1011.3
20260507185034 14 25 4.8 11.3 0.00 0.43 0.25 85 1011.0
20260507184544 14 42 1.6 14.5 0.00 0.43 0.25 87 1011.1
20260507184035 14 112 4.8 14.5 0.00 0.43 0.25 88 1011.2
20260507183534 14 74 6.4 12.9 0.00 0.43 0.25 87 1010.8
20260507183047 14 77 3.2 11.3 0.00 0.43 0.25 90 1011.1
20260507182534 14 80 4.8 8.0 0.00 0.43 0.25 90 1011.1
20260507182034 14 89 1.6 6.4 0.00 0.43 0.25 90 1011.1
20260507181551 14 85 3.2 12.9 0.00 0.43 0.25 89 1011.3
20260507181038 14 70 3.2 12.9 0.00 0.43 0.25 89 1011.0
20260507180533 14 114 6.4 12.9 0.00 0.43 0.25 89 1010.9
20260507180043 14 122 4.8 11.3 0.00 0.43 0.25 90 1010.8
20260507175534 14 117 6.4 11.3 0.00 0.46 0.25 90 1010.8
20260507175034 14 88 6.4 11.3 0.00 0.46 0.25 90 1010.8
20260507174555 14 116 4.8 9.7 0.00 0.46 0.25 90 1010.8
20260507174034 14 68 1.6 14.5 0.00 0.46 0.25 89 1011.0
20260507173533 14 223 6.4 14.5 0.03 0.46 0.25 88 1010.9
20260507173113 14 77 4.8 14.5 0.03 0.46 0.25 89 1010.8
20260507172533 14 69 6.4 11.3 0.10 0.46 0.25 88 1010.9
20260507172034 14 116 4.8 11.3 0.13 0.46 0.25 89 1011.0
20260507171601 15 78 4.8 12.9 0.15 0.46 0.25 89 1010.9
20260507171033 15 134 3.2 12.9 0.18 0.46 0.25 91 1010.8
20260507170533 15 76 3.2 11.3 0.20 0.46 0.25 90 1010.9
20260507170100 15 30 4.8 16.1 0.20 0.46 0.25 91 1010.7
20260507165533 15 71 4.8 16.1 0.20 0.48 0.25 92 1010.5
20260507165036 15 114 6.4 12.9 0.20 0.48 0.25 92 1010.6
20260507164549 15 90 4.8 12.9 0.20 0.48 0.25 92 1010.6
20260507164033 15 117 4.8 11.3 0.18 0.46 0.23 93 1010.4
20260507163537 14 151 1.6 11.3 0.18 0.46 0.23 93 1010.5
20260507163048 14 26 0.0 11.3 0.15 0.43 0.20 92 1010.8
20260507162533 14 78 4.8 11.3 0.10 0.38 0.15 91 1011.0
20260507162037 15 62 4.8 12.9 0.08 0.36 0.13 91 1010.9
20260507161600 15 51 4.8 12.9 0.05 0.33 0.10 91 1011.0
20260507161033 15 345 3.2 14.5 0.00 0.28 0.05 91 1011.0
20260507160533 15 77 4.8 14.5 0.00 0.28 0.05 90 1010.9
20260507160045 15 34 4.8 11.3 0.00 0.28 0.05 90 1010.8
20260507155533 15 121 6.4 11.3 0.00 0.33 0.05 89 1010.7
20260507155033 15 86 6.4 11.3 0.00 0.33 0.05 89 1010.6
20260507154545 16 86 4.8 11.3 0.00 0.33 0.05 90 1010.7
20260507154033 16 95 4.8 12.9 0.00 0.33 0.05 91 1010.7
20260507153533 16 112 6.4 12.9 0.00 0.33 0.05 90 1010.7
20260507153045 16 207 4.8 11.3 0.00 0.33 0.05 91 1010.8
20260507152537 15 84 4.8 9.7 0.00 0.33 0.05 91 1010.8
20260507152033 15 206 3.2 8.0 0.00 0.33 0.05 91 1010.8
20260507151548 15 129 4.8 8.0 0.00 0.33 0.05 91 1010.7
20260507151032 15 103 3.2 8.0 0.00 0.33 0.05 92 1010.7
20260507150533 15 82 3.2 8.0 0.00 0.33 0.05 91 1010.8
20260507150052 15 105 3.2 8.0 0.00 0.33 0.05 91 1010.8
20260507145533 15 98 4.8 8.0 0.00 0.33 0.05 92 1010.8
20260507145032 15 119 0.0 9.7 0.00 0.33 0.05 92 1011.0
20260507144548 15 114 0.0 9.7 0.00 0.33 0.05 91 1010.9
20260507144032 15 49 0.0 9.7 0.00 0.33 0.05 92 1010.6
20260507143533 15 103 0.0 9.7 0.00 0.33 0.05 92 1010.6
20260507143049 15 0 3.2 9.7 0.00 0.33 0.05 92 1010.5
20260507142533 15 60 3.2 11.3 0.00 0.33 0.05 92 1010.6
20260507142032 15 0 3.2 11.3 0.00 0.33 0.05 94 1010.5
20260507141604 15 25 4.8 9.7 0.00 0.33 0.05 94 1010.5
20260507141037 15 0 1.6 9.7 0.00 0.33 0.05 95 1010.4
20260507140532 15 80 3.2 9.7 0.00 0.33 0.05 94 1010.3
20260507140044 15 39 1.6 8.0 0.00 0.33 0.05 94 1010.4
20260507135533 15 0 1.6 6.4 0.00 0.36 0.05 94 1010.3
20260507135034 15 39 3.2 6.4 0.00 0.36 0.05 94 1010.6
20260507134549 15 286 1.6 4.8 0.00 0.36 0.05 95 1010.7
20260507134033 15 0 1.6 4.8 0.00 0.36 0.05 95 1010.2
20260507133535 15 100 1.6 4.8 0.00 0.36 0.05 95 1010.4
20260507133042 15 0 1.6 4.8 0.00 0.36 0.05 95 1010.6
20260507132534 15 0 0.0 4.8 0.00 0.36 0.05 95 1010.9
20260507132033 15 157 0.0 6.4 0.00 0.36 0.05 95 1010.7
20260507131545 15 109 4.8 6.4 0.00 0.36 0.05 95 1010.7
20260507131034 15 113 1.6 4.8 0.00 0.36 0.05 95 1011.1
20260507130535 15 0 0.0 1.6 0.00 0.36 0.05 95 1011.3
20260507130045 15 0 0.0 4.8 0.00 0.36 0.05 96 1011.4
20260507125535 15 0 0.0 6.4 0.00 0.36 0.05 96 1011.2
20260507125033 15 162 3.2 8.0 0.00 0.36 0.05 96 1011.3
20260507124547 16 120 3.2 8.0 0.00 0.36 0.05 96 1011.1
20260507124033 16 152 3.2 6.4 0.00 0.36 0.05 96 1011.1
20260507123533 16 0 0.0 6.4 0.00 0.36 0.05 96 1011.5
20260507123045 16 0 0.0 6.4 0.00 0.36 0.05 96 1011.4
20260507122534 16 122 3.2 4.8 0.00 0.36 0.05 96 1011.3
20260507122033 16 121 0.0 4.8 0.00 0.36 0.05 96 1011.4
20260507121550 16 0 0.0 4.8 0.00 0.36 0.05 96 1011.6
20260507121033 16 105 0.0 4.8 0.00 0.36 0.05 97 1011.2
20260507120532 16 0 0.0 4.8 0.00 0.36 0.05 97 1011.1
20260507120045 16 125 0.0 9.7 0.00 0.36 0.05 97 1011.2
20260507115533 16 131 1.6 9.7 0.00 0.36 0.05 97 1010.7
20260507115033 16 150 4.8 8.0 0.00 0.36 0.05 97 1010.6
20260507114542 16 140 3.2 8.0 0.00 0.36 0.05 97 1010.8
20260507114033 16 126 4.8 8.0 0.00 0.36 0.05 97 1011.0
20260507113537 16 131 3.2 4.8 0.00 0.36 0.05 97 1010.7
20260507113050 16 0 0.0 4.8 0.00 0.36 0.05 97 1010.8
20260507112533 16 0 0.0 6.4 0.00 0.36 0.05 97 1010.9
20260507112032 16 158 1.6 6.4 0.00 0.36 0.05 97 1010.9
20260507111547 16 122 3.2 8.0 0.00 0.36 0.05 97 1010.7
20260507111033 16 136 3.2 11.3 0.00 0.36 0.05 97 1010.8
20260507110533 16 139 3.2 11.3 0.00 0.36 0.05 97 1010.6
20260507110046 16 141 3.2 8.0 0.00 0.36 0.05 98 1010.5
20260507105532 16 146 1.6 6.4 0.00 0.36 0.05 98 1010.4
20260507105033 16 116 0.0 8.0 0.00 0.36 0.05 98 1010.5
20260507104547 16 0 3.2 8.0 0.00 0.36 0.05 98 1010.6
20260507104033 16 162 1.6 6.4 0.00 0.36 0.05 98 1010.1
20260507103532 16 0 0.0 0.0 0.03 0.36 0.05 98 1010.8
20260507103042 16 0 0.0 0.0 0.03 0.36 0.05 98 1010.8
20260507102534 16 0 0.0 0.0 0.03 0.36 0.05 98 1010.7